Regional Weather Roundup
Issued by NWS

Home | Current Version | Previous Version | Graphics & Text | Print | Product List | Glossary Off
Versions: 1 2 3 4 5 6 7 8 9 10 11 12 13 14 15 16 17 18 19 20 21 22 23 24 25 26 27 28 29 30 31 32 33 34 35 36 37 38 39 40 41 42 43 44 45 46 47 48 49 50

000
ASUS43 KMKX 242110
RWRWI

WISCONSIN REGIONAL WEATHER ROUNDUP
NATIONAL WEATHER SERVICE MILWAUKEE/SULLIVAN WI
400 PM CDT TUE APR 24 2018

NOTE: "FAIR" INDICATES FEW OR NO CLOUDS BELOW 12,000 FEET WITH NO
SIGNIFICANT WEATHER AND/OR OBSTRUCTIONS TO VISIBILITY.

WIZ001-002-006>008-014>016-023>028-242200-
NORTHWEST WISCONSIN

CITY           SKY/WX    TMP DP  RH WIND       PRES   REMARKS
SUPERIOR ARPT  FAIR      56  33  40 W5        30.18F
ASHLAND        CLOUDY    47  32  56 E6        30.20F
HAYWARD        LGT RAIN  49  37  63 N7        30.18S
SIREN          CLOUDY    52  33  47 N10       30.19F
CUMBERLAND     CLOUDY    50  32  50 N20G29    30.16S
RICE LAKE      PTSUNNY   56  32  40 N13G20    30.16S
CHETEK         PTSUNNY   58  33  38 N7G22     30.13S
LADYSMITH      PTSUNNY   58  32  37 N15G21    30.15R
EAU CLAIRE     PTSUNNY   67  33  28 N14G25    30.08S
MENOMONIE      FAIR      66  31  26 N16G22    30.10S
NEW RICHMOND   PTSUNNY   60  30  33 N17       30.15F
OSCEOLA        PTSUNNY   56  34  43 N21       30.19S
$$

WIZ003>005-009-010-017-018-242200-
NORTH CENTRAL WISCONSIN

CITY           SKY/WX    TMP DP  RH WIND       PRES   REMARKS
MANITOWISH WTR PTSUNNY   48  28  46 N8G21     30.14R
ARBOR VITAE    CLOUDY    52  31  44 N18       30.11R
WOODRUFF       CLOUDY    52  31  44 N18       30.11R
RHINELANDER    FAIR      60  30  32 N8        30.08S
EAGLE RIVER    FAIR      56  27  32 N10       30.09S
LAND O LAKES   PTSUNNY   48  29  46 N12G21    30.14R
PHILLIPS       FAIR      55  31  40 N12G21    30.12R
TOMAHAWK       FAIR      61  30  30 N12G18    30.08S
MEDFORD        FAIR      62  36  36 NW12G17   30.06S
MERRILL        FAIR      67  34  29 N12       30.05S
$$

WIZ029-030-035-036-043>047-242200-
CENTRAL WISCONSIN

CITY           SKY/WX    TMP DP  RH WIND       PRES   REMARKS
WAUSAU         CLOUDY    66  34  30 NW10      30.01F
MOSINEE        PTSUNNY   64  36  34 N9G17     30.04S
MARSHFIELD     CLOUDY    64  38  38 N10       30.03S
STEVENS POINT  CLOUDY    67  31  26 N6        30.02S
WAUPACA        CLOUDY    69  26  19 NE6       30.02F
WAUTOMA        FAIR      70  28  21 VRB3      30.01F
WISC RAPIDS    PTSUNNY   71  32  23 N9        30.02F
CAMP DOUGLAS   PTSUNNY   72  36  26 NW9       30.01F
$$

WIZ011>013-019>022-031-037>040-048>050-242200-
NORTHEAST WISCONSIN

CITY           SKY/WX    TMP DP  RH WIND       PRES   REMARKS
ANTIGO         PTSUNNY   61  38  43 N10       30.04S
SHAWANO        CLOUDY    65  36  34 SE6       30.02F
OCONTO         PTSUNNY   58  30  35 E6        30.05S
STURGEON BAY   FAIR      59  33  37 N9        30.05F
GREEN BAY      FAIR      63  34  33 NE10      30.03F
MANITOWOC      FAIR      58  49  72 E6        30.04F
APPLETON       PTSUNNY   64  19  17 N8        30.01
CLINTONVILLE   CLOUDY    64  30  28 SE3       30.03S
OSHKOSH        CLOUDY    66  32  28 NE9       30.01F
$$

WIZ032>034-041-042-053>061-242200-
SOUTHWEST WISCONSIN

CITY           SKY/WX    TMP DP  RH WIND       PRES   REMARKS
LA CROSSE      CLOUDY    74  37  26 NW14      30.01F
SPARTA         CLOUDY    68  37  31 N9        30.04S
VIROQUA        FAIR      68  38  34 N8        30.02F
BOSCOBEL       FAIR      76  34  21 N10       29.99F
PRAIRIE DU CHI FAIR      72  29  20 NW5       30.01S
PLATTEVILLE    FAIR      73  32  22 NW7G18    30.00F
$$

WIZ056-057-062-063-064-067-068-242200-
SOUTH CENTRAL WISCONSIN

CITY           SKY/WX    TMP DP  RH WIND       PRES   REMARKS
REEDSBURG      FAIR      71  35  26 N9        29.99F
BARABOO/DELLS  FAIR      71  28  20 NW5       30.00F
LONE ROCK      FAIR      73  33  23 N8        29.99F
MINERAL POINT  FAIR      72  27  18 NW10      30.00F
MADISON        FAIR      72  31  22 NE10G17   29.99F
MIDDLETON      FAIR      74  23  15 N12       30.00F
WATERTOWN      FAIR      69  27  21 N9        29.99F
MONROE         FAIR      70  27  19 NE5G17    29.99F
JANESVILLE     SUNNY     73  25  16 N7        29.98F
$$

WIZ051-052-058>065-066-070>072-242200-
SOUTHEAST WISCONSIN

CITY           SKY/WX    TMP DP  RH WIND       PRES   REMARKS
MILWAUKEE      PTSUNNY   58  48  69 E10       30.01F
WAUKESHA       SUNNY     66  37  34 NE9       30.00F
MILWAUKEE/TIMM SUNNY     63  43  48 E8        30.01F
RACINE         FAIR      60  48  64 NE7       30.02F
BURLINGTON     FAIR      68  45  43 NE8       29.98F
KENOSHA        FAIR      61  48  62 E10       30.00F
FOND DU LAC    FAIR      66  47  50 N10       30.01F
SHEBOYGAN      FAIR      60  50  69 NE6       30.02F
WEST BEND      FAIR      64  41  42 NE7       30.00S
JUNEAU         FAIR      67  33  27 N7        30.02S
$$

LSZ147-162-242200-
LAKE SUPERIOR

STATION/POSITION TIME  TEMP    WIND        PRES    WAVE
                       AIR SEA DIR/SP/G            HT/PER
                 (UTC) (F)     (DEG/KT/KT) (MB)    (FT/S)
DEVILS ISLAND    2000   48     210/  5/  6 1022.9F
SAXON HARBOR     2040   42     180/  2/  3 1022.4F
$$

LMZ867-665-643>646-242200-
LAKE MICHIGAN

STATION/POSITION TIME  TEMP    WIND        PRES    WAVE
                       AIR SEA DIR/SP/G            HT/PER
                 (UTC) (F)     (DEG/KT/KT) (MB)    (FT/S)
NORTHPORT PIER   2040   48                 1017.9F
KEWAUNEE LAKESHO 2042   46      40/  5/  6 1016.8F
SHEBOYGAN LAKESH 2100   44      20/  7/  8 1017.0F
PORT WASHINGTON  2030   44      50/  8/ 10 1017.6F
MILWAUKEE LAKESH 2050   42      30/  3/  4   N/A
KENOSHA   LAKESH 2100   42                 1016.3
$$

TC  - TEMPERATURE IN CELSIUS
VSB - VISIBILITY IN STATUTE MILES
WCI - WIND CHILL INDEX
HX  - HEAT INDEX





USA.gov is the U.S. government's official web portal to all federal, state and local government web resources and services.